Wind_Speed
3 2 1 1 1 1 2 4 5 5 5 6 6 5 5 5 4 3 3 2 2 2 2 2 2 2 2 2 2 2 1 2 3 2 2 1 1 1 1 1 1 2 2
3 2 2 1 1 1 1 2 4 5 5 5 5 5 5 5 4 4 3 2 2 2 2 2 1 1 0 1 1 0 0 1 2 2 1 1 1 1 1 1 2 2 2
3 3 2 2 1 1 1 2 4 5 5 5 5 5 5 5 4 4 3 3 2 1 2 1 1 1 0 1 1 1 1 1 1 1 0 0 0 0 1 1 2 2 2
3 3 3 2 3 2 2 3 4 5 5 4 4 5 5 5 4 3 3 3 2 1 2 1 0 1 1 1 2 2 2 2 1 1 1 1 1 1 1 2 2 2 3
3 3 3 3 4 3 4 4 4 4 4 3 3 4 4 4 3 3 3 2 1 1 1 1 1 1 2 2 3 3 2 2 2 2 1 1 1 2 2 2 2 3 3
3 3 3 3 4 4 5 4 4 4 3 2 2 2 2 2 2 2 1 1 1 1 1 0 1 1 1 2 3 3 3 3 2 2 2 2 2 2 2 2 3 4 4
3 3 3 3 3 4 4 4 3 3 2 1 1 1 2 1 0 1 1 1 1 1 1 2 2 2 2 3 3 3 3 3 3 2 2 2 3 3 2 2 3 4 4
3 3 3 3 4 4 3 3 3 3 3 3 2 1 1 0 1 1 1 1 2 3 2 2 2 2 2 2 2 3 3 4 4 3 3 3 4 3 3 3 4 5 5
3 3 3 3 3 4 3 3 3 3 3 3 3 2 2 2 1 1 1 2 3 3 3 3 4 3 2 2 2 2 3 4 3 3 3 4 4 4 4 4 5 6 6
4 4 4 3 3 3 3 3 3 3 4 4 3 3 3 3 3 3 2 3 3 4 4 4 5 3 3 3 3 2 3 4 4 4 3 4 5 5 5 5 6 6 6
5 4 4 4 4 4 4 3 3 3 4 4 4 3 3 4 4 3 3 4 4 4 5 5 5 5 4 3 3 3 3 4 4 4 4 5 5 5 5 5 5 5 5
5 5 5 4 4 3 3 3 3 4 4 4 4 4 4 4 4 4 4 4 5 5 4 4 5 4 3 3 4 4 5 5 4 3 4 4 4 4 4 5 6 6 6
6 5 5 5 4 4 3 3 3 4 4 4 5 5 5 5 4 4 4 5 5 4 4 4 4 4 4 4 4 4 5 5 3 3 3 3 4 4 4 5 5 6 6
5 5 5 5 5 5 5 4 4 4 5 5 5 6 6 5 5 5 5 5 5 5 5 4 5 5 3 4 4 5 5 5 4 4 4 4 4 4 5 5 6 7 7
5 5 5 6 6 5 5 5 5 5 5 5 6 6 7 6 6 6 6 6 6 5 5 5 5 5 5 5 5 5 5 4 4 4 4 4 5 5 6 6 6 7 8
6 6 5 6 6 6 5 5 5 5 5 6 6 7 7 7 7 6 7 7 7 6 5 5 5 5 5 5 5 5 5 6 4 5 4 5 6 6 7 8 8 8 8
7 6 6 6 6 6 5 5 5 5 6 6 7 7 8 7 7 7 7 7 7 7 6 5 5 5 6 6 6 6 6 6 5 5 5 6 7 7 8 8 8 8 8
8 7 7 6 6 6 6 6 6 6 6 6 7 7 7 7 7 8 8 8 8 6 6 6 6 6 7 7 6 6 6 5 5 6 6 7 7 7 8 8 8 8 8
8 8 8 7 6 6 6 6 7 7 7 7 7 7 8 7 7 8 8 9 8 7 7 6 7 8 8 7 7 6 7 7 7 7 8 8 8 8 8 9 8 8 9
8 8 8 7 7 7 7 7 7 7 7 7 7 7 8 8 8 8 8 8 8 7 7 7 8 8 8 8 8 8 8 8 8 8 8 9 9 8 8 8 8 8 9
8 8 8 8 8 8 8 7 7 8 8 8 8 9 8 8 9 8 8 8 8 7 8 8 8 8 8 8 8 9 9 9 10 10 10 9 10 8 9 9 9 9 10
9 9 8 8 8 8 8 8 8 8 9 9 9 9 9 9 9 9 8 8 8 8 9 9 9 8 9 9 10 10 10 10 10 10 10 10 9 8 9 10 11 10 11
9 9 9 9 8 8 8 8 9 9 9 9 10 9 9 9 9 9 8 8 8 9 9 10 10 9 10 10 10 11 10 10 10 11 11 11 10 11 12 12 12 12 12
9 9 9 9 9 9 9 9 9 9 9 9 10 9 10 9 9 9 9 9 10 10 11 11 11 11 11 11 11 11 11 12 11 11 11 11 12 12 13 13 14 14 14
9 9 9 9 9 9 9 9 9 9 9 9 9 9 9 9 9 10 10 11 11 11 12 12 11 12 12 12 12 13 13 13 12 12 12 13 13 14 15 15 15 14 15
10 10 10 10 10 10 10 10 10 10 10 10 11 11 11 11 11 11 12 12 12 13 13 13 12 13 13 13 13 14 14 14 14 13 14 14 15 16 16 16 15 15 15
Wind_Direction
69 105 146 147 152 175 198 193 188 188 188 187 182 173 168 168 163 163 158 143 145 150 138 117 129 104 73 86 87 75 123 165 137 122 109 100 76 79 68 34 347 350 1
73 87 107 112 116 158 205 201 187 187 190 190 187 177 176 179 176 167 165 169 144 149 160 126 124 126 116 80 53 310 73 199 173 121 125 108 58 54 60 4 331 335 338
85 84 84 85 81 63 150 197 183 178 182 191 188 182 184 185 178 181 178 191 185 170 168 125 75 47 33 13 4 331 258 235 194 166 179 61 15 72 44 337 324 308 318
81 75 77 76 71 72 104 126 151 169 174 186 180 181 177 184 180 176 176 188 194 215 199 188 20 333 316 305 312 299 293 267 248 256 239 225 287 307 320 332 336 306 308
75 69 72 85 84 79 89 106 124 149 169 187 191 188 175 171 173 169 167 182 198 237 239 232 240 291 293 278 283 280 299 294 283 279 246 235 262 283 307 318 331 321 311
76 69 73 89 88 80 97 114 129 140 145 160 189 188 177 163 159 171 184 203 220 229 252 286 322 285 277 283 280 277 289 307 297 261 239 243 264 275 297 320 311 315 309
74 73 79 83 88 93 90 101 107 103 103 81 130 143 176 143 72 235 236 271 292 306 327 344 343 333 310 281 280 297 297 298 284 251 254 262 285 288 301 312 309 308 307
78 80 77 81 93 91 86 81 75 71 62 58 73 73 180 339 3 345 302 307 318 317 329 349 323 339 352 348 291 293 295 289 275 267 276 281 295 296 298 310 306 295 298
79 82 84 82 85 86 85 82 71 59 53 62 64 52 15 4 354 342 326 325 335 334 334 339 330 339 357 352 331 297 297 290 281 273 277 282 288 302 302 305 312 301 295
69 69 73 72 65 70 67 61 58 46 41 51 41 29 16 8 349 333 331 338 338 337 335 332 337 336 321 328 332 310 290 285 293 289 285 287 289 297 303 306 308 300 291
59 64 63 61 64 64 66 64 44 36 35 35 25 19 24 16 6 358 354 353 346 341 342 337 337 337 334 326 334 322 303 302 301 289 283 287 291 292 297 300 306 307 297
49 48 55 58 55 57 57 41 28 35 34 27 21 21 13 20 23 18 5 359 352 347 344 345 330 336 344 334 324 317 315 315 307 293 302 307 307 307 297 297 302 304 299
48 43 45 50 38 36 36 30 23 27 25 23 16 16 16 19 21 15 6 3 2 354 344 344 336 331 329 317 314 319 326 331 312 315 320 315 320 321 313 303 302 307 305
39 40 41 38 29 28 23 18 21 18 17 15 8 9 19 19 15 14 6 2 2 358 349 342 338 342 342 335 328 328 334 342 342 333 326 320 316 313 310 305 303 305 301
34 36 35 30 26 26 19 16 14 14 13 13 9 8 12 13 15 12 360 1 5 2 357 355 344 350 350 351 339 333 345 341 337 331 329 324 318 312 311 309 306 308 298
32 30 25 23 23 22 19 13 12 11 5 3 3 358 1 0 1 356 358 354 353 349 352 353 351 356 352 348 348 346 344 344 336 336 318 319 328 323 317 316 309 304 299
32 28 23 21 19 18 12 7 8 5 2 359 353 351 352 354 355 352 349 346 345 343 348 345 344 341 340 349 353 350 342 339 334 334 327 319 321 324 322 318 312 309 305
33 28 20 14 12 14 10 6 359 354 352 350 352 350 349 350 348 347 350 352 355 356 352 353 349 346 347 348 345 341 339 334 327 325 319 317 317 320 322 320 315 309 305
27 24 18 14 9 8 3 358 354 354 353 352 351 353 351 349 349 346 346 351 356 357 353 355 353 345 338 338 341 341 338 331 324 324 321 319 319 319 319 324 320 316 307
17 13 11 11 5 360 356 353 351 351 353 351 351 349 347 346 346 343 345 348 351 353 354 351 342 336 334 333 334 335 334 334 325 319 320 319 320 320 322 324 321 318 313
7 3 359 0 358 353 348 345 346 349 351 350 347 344 345 346 347 348 347 346 347 350 347 344 339 336 335 333 329 328 325 325 324 319 315 315 312 316 322 321 318 316 314
356 356 353 352 349 348 346 345 346 348 347 347 347 347 347 345 346 349 349 349 348 345 344 342 336 334 333 332 328 324 323 322 326 323 319 317 314 311 313 316 315 312 312
345 348 346 344 346 351 350 349 349 346 342 343 345 345 346 343 346 348 346 343 342 340 337 335 334 333 330 329 327 327 327 326 324 321 321 317 313 314 310 309 309 307 305
333 338 340 339 341 346 347 345 343 338 335 335 337 340 345 348 349 347 341 337 336 333 331 330 330 330 328 326 325 325 323 321 318 316 315 313 310 311 309 306 301 302 307
322 329 331 332 336 339 340 340 337 336 333 333 334 335 334 336 338 335 331 332 330 327 327 327 328 326 324 322 322 320 318 316 313 312 312 311 309 307 306 303 301 303 305
312 319 321 324 327 330 332 335 336 335 331 328 327 325 326 326 325 324 323 323 324 323 322 325 327 327 326 322 319 317 315 314 311 310 309 308 308 306 304 303 301 301 303
Height
5874 5875 5875 5875 5874 5874 5874 5874 5874 5875 5876 5877 5878 5879 5880 5881 5881 5882 5882 5883 5883 5883 5884 5884 5885 5885 5886 5886 5886 5886 5886 5887 5887 5887 5888 5888 5889 5889 5890 5890 5890 5890 5891
5876 5875 5876 5875 5875 5874 5873 5872 5873 5874 5875 5877 5878 5880 5880 5881 5882 5883 5883 5884 5884 5884 5884 5885 5886 5886 5886 5886 5887 5887 5887 5887 5887 5887 5888 5888 5889 5889 5889 5890 5890 5890 5890
5877 5876 5877 5876 5875 5873 5871 5870 5871 5873 5875 5877 5879 5880 5881 5882 5882 5883 5884 5884 5885 5885 5885 5886 5886 5887 5887 5887 5887 5887 5887 5887 5887 5887 5888 5888 5888 5889 5889 5890 5890 5890 5890
5877 5878 5877 5877 5875 5873 5871 5870 5870 5872 5875 5877 5879 5880 5881 5882 5883 5883 5884 5884 5885 5885 5886 5886 5887 5887 5887 5887 5887 5887 5887 5887 5887 5887 5888 5888 5888 5889 5889 5889 5890 5890 5890
5880 5879 5879 5878 5877 5875 5873 5872 5872 5873 5876 5878 5880 5881 5882 5883 5883 5884 5884 5885 5885 5885 5886 5886 5887 5887 5887 5887 5887 5887 5887 5887 5887 5887 5887 5887 5888 5889 5889 5889 5889 5889 5890
5881 5881 5880 5880 5879 5878 5876 5875 5876 5877 5878 5880 5881 5882 5882 5883 5884 5884 5885 5885 5886 5886 5886 5886 5886 5886 5886 5886 5886 5886 5886 5887 5887 5887 5887 5887 5888 5888 5889 5889 5889 5889 5889
5883 5882 5881 5881 5881 5880 5879 5879 5879 5880 5881 5881 5882 5882 5883 5884 5884 5885 5885 5885 5886 5886 5886 5886 5886 5886 5886 5885 5886 5886 5886 5887 5887 5887 5888 5888 5888 5888 5888 5889 5889 5889 5889
5884 5883 5883 5883 5883 5882 5882 5882 5882 5882 5882 5882 5882 5883 5883 5883 5884 5885 5885 5885 5886 5886 5886 5886 5886 5885 5885 5885 5885 5885 5886 5886 5886 5887 5887 5887 5887 5888 5888 5888 5888 5888 5888
5885 5885 5885 5885 5885 5884 5884 5884 5884 5884 5884 5884 5884 5884 5883 5884 5884 5884 5884 5885 5885 5885 5886 5886 5885 5885 5885 5885 5885 5885 5886 5886 5886 5886 5886 5886 5887 5887 5887 5887 5887 5887 5887
5886 5886 5886 5886 5886 5886 5886 5886 5886 5886 5886 5885 5885 5884 5884 5883 5883 5884 5884 5884 5885 5885 5885 5885 5885 5885 5885 5885 5885 5885 5885 5885 5885 5886 5886 5886 5886 5886 5886 5886 5886 5886 5886
5888 5888 5887 5887 5887 5887 5887 5887 5887 5887 5887 5886 5886 5885 5885 5884 5883 5883 5884 5884 5884 5884 5884 5884 5884 5884 5884 5885 5885 5885 5885 5885 5885 5885 5885 5885 5885 5884 5885 5885 5885 5885 5885
5890 5889 5889 5889 5889 5889 5889 5889 5889 5889 5888 5888 5887 5886 5885 5885 5884 5884 5884 5884 5884 5884 5884 5884 5883 5883 5884 5884 5884 5884 5884 5884 5884 5884 5884 5884 5884 5884 5884 5884 5884 5884 5884
5891 5891 5890 5890 5890 5890 5890 5890 5890 5890 5889 5888 5888 5887 5886 5885 5885 5884 5884 5885 5885 5885 5884 5884 5883 5883 5883 5883 5883 5883 5883 5883 5883 5883 5882 5883 5883 5883 5883 5883 5883 5883 5883
5893 5892 5892 5892 5892 5891 5891 5891 5891 5891 5890 5889 5889 5888 5887 5886 5886 5885 5885 5885 5885 5884 5884 5884 5884 5883 5883 5883 5883 5883 5883 5882 5882 5882 5882 5882 5883 5882 5882 5882 5882 5882 5881
5894 5894 5894 5893 5893 5893 5892 5892 5892 5892 5891 5890 5889 5889 5888 5887 5887 5886 5885 5885 5885 5885 5884 5884 5883 5883 5883 5883 5883 5883 5882 5882 5882 5882 5881 5882 5881 5882 5881 5881 5881 5880 5880
5896 5895 5895 5895 5894 5894 5894 5893 5893 5893 5892 5891 5891 5890 5889 5888 5887 5887 5886 5886 5885 5885 5884 5883 5883 5883 5883 5882 5882 5882 5882 5881 5881 5881 5881 5881 5881 5880 5880 5880 5879 5879 5878
5897 5897 5896 5896 5896 5895 5895 5894 5894 5893 5893 5892 5891 5890 5889 5889 5888 5887 5887 5886 5885 5884 5884 5883 5882 5883 5882 5882 5881 5881 5881 5881 5881 5880 5880 5880 5879 5879 5879 5878 5877 5877 5877
5899 5898 5898 5897 5896 5896 5896 5895 5894 5894 5893 5893 5892 5891 5890 5889 5888 5888 5887 5886 5885 5884 5883 5883 5883 5882 5882 5881 5881 5881 5881 5880 5880 5879 5879 5879 5878 5878 5877 5876 5876 5875 5875
5900 5899 5898 5898 5897 5897 5896 5895 5895 5894 5893 5893 5892 5891 5890 5889 5888 5888 5887 5886 5885 5884 5883 5883 5883 5882 5882 5881 5881 5880 5880 5879 5878 5878 5878 5877 5877 5876 5875 5875 5874 5873 5873
5901 5901 5900 5899 5898 5897 5897 5896 5895 5895 5894 5893 5892 5891 5890 5889 5888 5887 5887 5886 5885 5884 5884 5883 5882 5882 5881 5881 5880 5879 5879 5878 5877 5876 5876 5875 5875 5874 5873 5873 5872 5872 5871
5902 5901 5901 5899 5899 5898 5897 5896 5895 5895 5894 5893 5892 5890 5889 5889 5888 5887 5886 5885 5885 5884 5883 5883 5882 5881 5881 5880 5879 5878 5878 5877 5876 5874 5874 5873 5872 5871 5871 5871 5870 5870 5869
5903 5902 5901 5900 5899 5898 5896 5896 5895 5894 5894 5893 5892 5890 5889 5888 5888 5887 5886 5885 5885 5884 5883 5882 5882 5881 5880 5879 5878 5877 5876 5875 5874 5873 5872 5871 5870 5869 5869 5869 5868 5867 5866
5903 5902 5901 5900 5899 5898 5896 5895 5894 5894 5893 5892 5891 5890 5889 5888 5887 5887 5886 5885 5885 5884 5883 5882 5881 5880 5879 5878 5876 5875 5874 5873 5872 5871 5870 5869 5868 5867 5866 5865 5865 5864 5862
5903 5902 5901 5900 5899 5897 5896 5895 5894 5894 5893 5892 5891 5890 5889 5888 5887 5887 5886 5885 5884 5883 5882 5881 5879 5878 5877 5876 5875 5873 5872 5871 5870 5869 5868 5867 5866 5864 5864 5862 5862 5860 5859
5902 5901 5900 5899 5898 5897 5896 5895 5894 5893 5892 5891 5890 5889 5888 5888 5887 5886 5885 5884 5883 5882 5881 5879 5878 5876 5875 5874 5872 5871 5870 5868 5867 5866 5865 5864 5863 5862 5861 5860 5859 5858 5857
5901 5900 5900 5899 5898 5897 5896 5895 5894 5892 5891 5891 5889 5888 5887 5886 5885 5884 5883 5882 5881 5880 5878 5877 5876 5874 5873 5871 5870 5868 5867 5865 5865 5864 5862 5861 5860 5859 5857 5856 5855 5854 5853